Thermal, CA

9:38 AM PST on February 08, 2016 (GMT -0800)
Desert Resorts Regional

Weather History for KTRM - February, 2014

Change the Weather History Date:

Tuesday, February 4, 2014

  Actual Average Record
Temperature  
Mean Temperature 52 °F 56 °F  
Max Temperature 67 °F 73 °F 89 °F (1963)
Min Temperature 36 °F 39 °F 24 °F (2011)
Degree Days  
Heating Degree Days 13 9  
Month to date heating degree days 55 36  
Since 1 July heating degree days 728 896  
Cooling Degree Days 0 0  
Month to date cooling degree days 0 0  
Year to date cooling degree days 0 2  
Growing Degree Days 2 (Base 50)    
Moisture  
Dew Point 35 °F    
Average Humidity 55    
Maximum Humidity 82    
Minimum Humidity 28    
Precipitation  
Precipitation 0.00 in 0.02 in 1.10 in (1958)
Month to date precipitation 0.00 0.08  
Year to date precipitation T 0.75  
Since 1 July precipitation 1.47  
Snow  
Snow 0.00 in - - ()
Month to date snowfall 0.0  
Year to date snowfall 0.0  
Snow Depth 0.00 in    
Sea Level Pressure  
Sea Level Pressure 29.99 in    
Wind  
Wind Speed 4 mph (SSE)    
Max Wind Speed 10 mph    
Max Gust Speed 13 mph    
Visibility 10 miles    
Events      
T = Trace of Precipitation, MM = Missing Value Source: NWS Daily Summary

Daily Weather History Graph

Daily Weather History Graph

Search for Another Location

Airport or City:

Trip Planner

Search our weather history database for the weather conditions in past years. The results will help you decide how hot, cold, wet, or windy it might be!

Date:

Astronomy

Feb. 04, 2014 Rise Set
Actual Time 6:38 AM PST 5:18 PM PST
Civil Twilight 6:12 AM PST 5:44 PM PST
Nautical Twilight 5:43 AM PST 6:14 PM PST
Astronomical Twilight 5:13 AM PST 6:43 PM PST
Moon 9:37 AM PST (2/4) 10:57 PM PST (2/4)
Length of Visible Light 11h 32m
Length of Day
10h 40m
Waxing Crescent, 30% of the Moon is Illuminated
Feb 4
Waxing Crescent
Feb 6
First Quarter
Feb 14
Full
Feb 22
Last Quarter
Mar 1
New

Hourly Weather History & Observations

Time (PST) Temp. Windchill Dew Point Humidity Pressure Visibility Wind Dir Wind Speed Gust Speed Precip Events Conditions
12:52 AM 53.1 °F - 37.9 °F 57% 29.93 in 10.0 mi North 9.2 mph - N/A   Clear
1:52 AM 48.9 °F - 37.0 °F 64% 29.94 in 10.0 mi Variable 3.5 mph - N/A   Clear
2:52 AM 45.0 °F 43.5 °F 34.0 °F 65% 29.94 in 10.0 mi SW 3.5 mph - N/A   Clear
3:52 AM 39.9 °F - 30.9 °F 70% 29.94 in 10.0 mi Calm Calm - N/A   Clear
4:52 AM 39.0 °F 34.8 °F 32.0 °F 76% 29.96 in 10.0 mi SE 5.8 mph - N/A   Clear
5:52 AM 37.9 °F - 32.0 °F 79% 29.98 in 10.0 mi Calm Calm - N/A   Clear
6:52 AM 37.0 °F - 30.9 °F 79% 30.00 in 10.0 mi Calm Calm - N/A   Clear
7:52 AM 46.0 °F - 36.0 °F 68% 30.02 in 10.0 mi Calm Calm - N/A   Clear
8:52 AM 54.0 °F - 37.0 °F 53% 30.04 in 10.0 mi Variable 4.6 mph - N/A   Clear
9:52 AM 57.9 °F - 37.0 °F 46% 30.05 in 10.0 mi Calm Calm - N/A   Clear
10:52 AM 62.1 °F - 36.0 °F 38% 30.05 in 10.0 mi East 3.5 mph - N/A   Clear
11:52 AM 64.9 °F - 36.0 °F 34% 30.01 in 10.0 mi Variable 6.9 mph - N/A   Clear
12:52 PM 66.0 °F - 35.1 °F 32% 29.99 in 10.0 mi North - - N/A   Clear
1:52 PM 66.0 °F - 32.0 °F 28% 29.97 in 10.0 mi Variable 4.6 mph - N/A   Clear
2:52 PM 64.9 °F - 32.0 °F 29% 29.95 in 10.0 mi SE 5.8 mph - N/A   Clear
3:52 PM 64.9 °F - 33.1 °F 31% 29.95 in 10.0 mi ESE 8.1 mph - N/A   Clear
4:52 PM 63.0 °F - 32.0 °F 31% 29.95 in 10.0 mi South 5.8 mph - N/A   Clear
5:52 PM 57.9 °F - 34.0 °F 41% 29.96 in 10.0 mi ESE 5.8 mph - N/A   Clear
6:52 PM 55.0 °F - 35.1 °F 47% 29.97 in 10.0 mi ESE 5.8 mph - N/A   Clear
7:52 PM 54.0 °F - 35.1 °F 49% 29.99 in 10.0 mi South 4.6 mph - N/A   Clear
8:52 PM 53.1 °F - 36.0 °F 52% 30.01 in 10.0 mi Calm Calm - N/A   Clear
9:52 PM 53.1 °F - 37.9 °F 57% 30.01 in 10.0 mi WNW 5.8 mph - N/A   Scattered Clouds
10:52 PM 55.9 °F - 37.0 °F 49% 30.02 in 10.0 mi WNW 8.1 mph - N/A   Mostly Cloudy
11:52 PM 57.0 °F - 37.9 °F 49% 30.03 in 10.0 mi NW 5.8 mph - N/A   Mostly Cloudy